TimeMDT,TemperatureF,Dew PointF,Humidity,Sea Level PressureIn,VisibilityMPH,Wind Direction,Wind SpeedMPH,Gust SpeedMPH,PrecipitationIn,Events,Conditions,WindDirDegrees,DateUTC
12:53 AM,75.0,46.9,37,29.69,10.0,SW,6.9,-,N/A,,Clear,230,2013-07-16 06:53:00
1:53 AM,72.0,43.0,35,29.71,10.0,SSW,6.9,-,N/A,,Clear,200,2013-07-16 07:53:00
2:53 AM,70.0,43.0,38,29.71,10.0,SSW,5.8,-,N/A,,Clear,210,2013-07-16 08:53:00
3:53 AM,68.0,42.1,39,29.70,10.0,South,4.6,-,N/A,,Clear,180,2013-07-16 09:53:00
4:53 AM,66.0,41.0,40,29.72,10.0,SSW,5.8,-,N/A,,Clear,210,2013-07-16 10:53:00
5:53 AM,68.0,41.0,37,29.73,10.0,ESE,3.5,-,N/A,,Clear,120,2013-07-16 11:53:00
6:53 AM,69.1,41.0,36,29.73,10.0,ESE,4.6,-,N/A,,Clear,120,2013-07-16 12:53:00
7:53 AM,71.1,41.0,34,29.74,6.0,Calm,Calm,-,N/A,,Haze,0,2013-07-16 13:53:00
8:53 AM,75.0,42.1,31,29.75,4.0,Calm,Calm,-,N/A,,Smoke,0,2013-07-16 14:53:00
9:53 AM,81.0,44.1,27,29.75,4.0,West,5.8,-,N/A,,Smoke,280,2013-07-16 15:53:00
10:53 AM,84.0,46.0,26,29.75,10.0,NW,8.1,-,N/A,,Smoke,310,2013-07-16 16:53:00
11:53 AM,88.0,46.9,24,29.73,10.0,NW,8.1,-,N/A,,Clear,320,2013-07-16 17:53:00
12:53 PM,93.9,46.9,20,29.72,10.0,WNW,9.2,-,N/A,,Clear,300,2013-07-16 18:53:00
1:53 PM,98.1,48.0,18,29.70,10.0,NW,8.1,-,N/A,,Clear,320,2013-07-16 19:53:00
2:53 PM,98.1,48.0,18,29.68,10.0,NE,8.1,-,N/A,,Partly Cloudy,40,2013-07-16 20:53:00
3:23 PM,100.4,42.8,14,29.78,10.0,South,8.1,18.4,N/A,Thunderstorm,Thunderstorm,190,2013-07-16 21:23:00
3:38 PM,93.2,51.8,24,29.80,6.0,West,11.5,23.0,N/A,,Haze,260,2013-07-16 21:38:00
3:53 PM,90.0,57.0,33,29.72,5.0,West,12.7,19.6,0.01,Rain,Rain,270,2013-07-16 21:53:00
4:07 PM,91.4,57.2,31,29.82,10.0,West,8.1,-,0.01,Thunderstorm,Scattered Clouds,260,2013-07-16 22:07:00
4:24 PM,96.8,53.6,23,29.80,10.0,NE,5.8,-,0.01,,Clear,50,2013-07-16 22:24:00
4:53 PM,97.0,51.1,21,29.68,10.0,NNE,11.5,-,0.01,,Clear,20,2013-07-16 22:53:00
5:53 PM,100.0,44.1,15,29.65,10.0,ENE,10.4,-,N/A,,Clear,60,2013-07-16 23:53:00
6:51 PM,96.8,50.0,20,29.75,10.0,Calm,Calm,-,N/A,Thunderstorm,Scattered Clouds,0,2013-07-17 00:51:00
6:53 PM,96.1,50.0,21,29.64,10.0,NNW,3.5,-,N/A,Thunderstorm,Partly Cloudy,330,2013-07-17 00:53:00
7:06 PM,95.0,50.0,22,29.75,10.0,Variable,3.5,-,N/A,,Clear,0,2013-07-17 01:06:00
7:45 PM,93.2,50.0,23,29.76,10.0,NNE,5.8,-,N/A,Thunderstorm,Thunderstorm,30,2013-07-17 01:45:00
7:53 PM,93.9,50.0,22,29.67,10.0,West,4.6,-,N/A,Thunderstorm,Thunderstorm,280,2013-07-17 01:53:00
8:41 PM,80.6,59.0,48,29.86,10.0,South,13.8,24.2,0.07,Rain-Thunderstorm,Light Thunderstorms and Rain,170,2013-07-17 02:41:00
8:47 PM,82.4,57.2,42,29.86,10.0,SSE,17.3,-,0.07,,Mostly Cloudy,150,2013-07-17 02:47:00
8:53 PM,82.9,59.0,44,29.73,10.0,East,17.3,-,0.07,,Mostly Cloudy,80,2013-07-17 02:53:00
9:00 PM,82.4,60.8,48,29.83,10.0,East,9.2,-,N/A,,Scattered Clouds,100,2013-07-17 03:00:00
9:53 PM,80.1,61.0,52,29.70,10.0,ESE,9.2,-,N/A,,Clear,120,2013-07-17 03:53:00
10:53 PM,84.0,54.0,35,29.71,10.0,ESE,12.7,-,N/A,,Clear,120,2013-07-17 04:53:00
11:53 PM,80.1,55.0,42,29.73,10.0,SE,9.2,-,N/A,,Clear,130,2013-07-17 05:53:00